Home > Weather > Târgu Mureş > Past weeks

Flag for Romania Past Weather in Târgu Mureş, Romania — Yesterday and Last 2 Weeks

Now
88 °F

Passing clouds.


Feels Like: 88 °F
Forecast: 63 / 88 °F
Wind: 5 mph from South

Location: Tirgu Mures Airport

Current Time: Jul 25, 2016 at 3:07:19 PM

Latest Report: Jul 25, 2016 at 2:30 PM


Visibility: N/A

Pressure: 29.98 "Hg

Humidity: 40%

Dew Point: 61 °F

Location of Târgu MureşLocation

Past Weather in Târgu Mureş — Graph

°F

Târgu Mureş Temperature Yesterday

Maximum temperature yesterday: 86 °F (at 4:00 PM)
Minimum temperature yesterday: 59 °F (at 5:00 AM)
Average temperature yesterday: 74 °F

High & Low Weather Summary for the Past Weeks

 TemperatureHumidityPressure
High93 °F (Jul 13, 5:30 PM)100% (Jul 11, 2:00 AM)30.12 "Hg (Jul 11, 2:00 AM)
Low48 °F (Jul 21, 5:30 AM)30% (Jul 12, 4:00 PM)29.68 "Hg (Jul 14, 6:00 PM)
Average70 °F71%29.98 "Hg
* Reported Jul 10 1:00 PM — Jul 25 1:30 PM, Târgu Mureş, Weather by CustomWeather, © 2016

Note: Actual official high and low records may vary slightly from our data, if they occured in-between our weather recording intervals... More about our weather records

Advertising

Târgu Mureş Weather History for the Previous 24 Hours

Scroll right to see more
 ConditionsComfort  
Time TempWeatherWind HumidityBarometerVisibility
1:30 PM
Mon, Jul 25
84 °FPassing clouds.5 mph48%30.01 "HgN/A
1:00 PM84 °FPassing clouds.6 mph43%30.01 "HgN/A
12:30 PM84 °FPassing clouds.5 mph48%30.01 "HgN/A
12:00 PM82 °FSunny.8 mph55%30.01 "Hg10 mi
11:30 AM81 °FPassing clouds.8 mph54%30.01 "HgN/A
11:00 AM81 °FSunny.1 mph58%30.04 "Hg10 mi
10:30 AM77 °FSunny.No wind61%30.04 "Hg10 mi
10:00 AM75 °FSunny.2 mph65%30.04 "Hg10 mi
9:30 AM72 °FSunny.2 mph69%30.04 "Hg10 mi
9:00 AM70 °FSunny.3 mph78%30.04 "Hg10 mi
8:30 AM68 °FSunny.1 mph83%30.04 "Hg10 mi
8:00 AM64 °FPassing clouds.3 mph88%30.04 "HgN/A
7:30 AM63 °FClear.3 mph94%30.04 "Hg6 mi
7:00 AM61 °FClear.6 mph94%30.04 "Hg5 mi
6:30 AM57 °FClear.5 mph100%30.04 "Hg5 mi
6:00 AM57 °FClear.No wind94%30.04 "Hg5 mi
5:30 AM57 °FClear.3 mph94%30.04 "Hg5 mi
5:00 AM57 °FClear.2 mph100%30.04 "Hg10 mi
4:00 AM59 °FClear.3 mph94%30.04 "Hg10 mi
3:00 AM59 °FClear.No wind94%30.04 "Hg10 mi
2:00 AM59 °FClear.No wind94%30.04 "Hg10 mi
1:00 AM61 °FClear.No wind94%30.07 "Hg10 mi
12:00 AM61 °FClear.No wind94%30.04 "Hg10 mi
11:00 PM
Sun, Jul 24
64 °FClear.No wind83%30.04 "Hg10 mi
10:00 PM66 °FSunny.2 mph83%30.04 "Hg10 mi
9:00 PM73 °FSunny.No wind69%30.01 "Hg10 mi
8:30 PM79 °FSunny.3 mph54%30.01 "Hg10 mi
8:00 PM82 °FSunny.3 mph45%30.01 "Hg10 mi
7:30 PM84 °FSunny.5 mph43%30.01 "Hg10 mi
7:00 PM84 °FPassing clouds.5 mph37%30.01 "HgN/A
6:30 PM84 °FPassing clouds.6 mph40%30.01 "HgN/A
6:00 PM86 °FPassing clouds.7 mph38%30.01 "HgN/A
5:30 PM86 °FPassing clouds.8 mph40%30.01 "HgN/A
5:00 PM84 °FPassing clouds.6 mph37%30.01 "HgN/A
4:30 PM86 °FPassing clouds.6 mph38%30.04 "HgN/A
4:00 PM86 °FPassing clouds.3 mph40%30.04 "HgN/A
3:30 PM84 °FScattered clouds.8 mph43%30.04 "HgN/A
3:00 PM84 °FScattered clouds.6 mph43%30.04 "HgN/A
Weather by CustomWeather, © 2016

See weather overviewHow to use our weather pages